Back to catalog

COSMOS 2251 DEB

AliveLEO
NORAD 35764·DEBRIS·🇷🇺 Russia

Launched Jun 16, 1993 from Plesetsk Cosmodrome

Loading…

Next Passes (next 24 hours)

TLE

AgingSource: Space-Track

Epoch: Sep 12, 2026, 10:23 UTC

1 35764U 93036ARJ 26255.43274879  .00004613  00000-0  60062-3 0  9991
2 35764  74.0229 164.6290 0025896 216.3614 143.5804 14.80690695700945

Track COSMOS 2251 DEB in real time with AllMySat

Download on the App Store